Imperial, NE

8:32 PM MDT on June 27, 2017 (GMT -0600)
Imperial Municipal

Weather History for KIML - February, 2013

Change the Weather History Date:

Sunday, February 24, 2013

  Actual Average Record
Temperature  
Mean Temperature 27 °F 34 °F  
Max Temperature 34 °F 47 °F 73 °F (2009)
Min Temperature 20 °F 20 °F -15 °F (1960)
Degree Days  
Heating Degree Days 38 31  
Month to date heating degree days 792 815  
Cooling Degree Days 0 0  
Month to date cooling degree days 0 0  
Year to date cooling degree days 0 0  
Moisture  
Dew Point 26 °F    
Average Humidity 81    
Maximum Humidity 92    
Minimum Humidity 69    
Precipitation  
Precipitation 0.04 in 0.01 in 0.35 in (1903)
Sea Level Pressure  
Sea Level Pressure 29.97 in    
Wind  
Wind Speed 12 mph (NNE)    
Max Wind Speed 29 mph    
Max Gust Speed 79 mph    
Visibility 6 miles    
Events Snow    
T = Trace of Precipitation, MM = Missing Value Source: NWS Daily Summary

Daily Weather History Graph

Daily Weather History Graph

Search for Another Location

Airport or City:

Trip Planner

Search our weather history database for the weather conditions in past years. The results will help you decide how hot, cold, wet, or windy it might be!

Date:

Astronomy

Feb. 24, 2013 Rise Set
Actual Time 6:27 AM MST 5:32 PM MST
Civil Twilight 5:59 AM MST 6:00 PM MST
Nautical Twilight 5:28 AM MST 6:31 PM MST
Astronomical Twilight 4:56 AM MST 7:03 PM MST
Moon 4:45 PM MST (2/24) 5:25 AM MST (2/24)
Length of Visible Light 12h 00m
Length of Day
11h 05m
Waxing Gibbous, 99% of the Moon is Illuminated
Feb 24
Waxing Gibbous
Feb 25
Full
Mar 4
Last Quarter
Mar 11
New
Mar 19
First Quarter

Hourly Weather History & Observations

Time (MST) Temp. Windchill Dew Point Humidity Pressure Visibility Wind Dir Wind Speed Gust Speed Precip Events Conditions
12:53 AM 24.1 °F - 21.9 °F 91% 29.83 in 6.0 mi Calm Calm - N/A   Overcast
1:07 AM 24.8 °F 14.6 °F 21.2 °F 86% 29.76 in 7.0 mi West 10.4 mph 79.4 mph N/A   Squalls
1:53 AM 24.1 °F 16.0 °F 21.9 °F 91% 29.82 in 6.0 mi North 6.9 mph - N/A   Overcast
2:53 AM 21.9 °F - 19.9 °F 92% 29.82 in 6.0 mi Calm Calm - N/A   Mostly Cloudy
3:53 AM 21.9 °F 13.4 °F 19.9 °F 92% 29.80 in 7.0 mi NNE 6.9 mph - N/A   Overcast
4:53 AM 21.2 °F 14.9 °F 19.4 °F 93% 29.75 in 5.0 mi SSE 4.6 mph - N/A   Overcast
5:53 AM 19.9 °F 14.9 °F 18.0 °F 92% 29.88 in 6.0 mi NW 3.5 mph - N/A   Mostly Cloudy
6:53 AM 25.0 °F 15.5 °F 21.9 °F 88% 29.89 in 5.0 mi NE 9.2 mph - N/A   Overcast
7:00 AM 24.8 °F 16.1 °F 23.0 °F 93% 29.79 in 6.0 mi NE 8.1 mph - N/A   Overcast
7:18 AM 26.6 °F 18.2 °F 23.0 °F 86% 29.81 in 6.0 mi NE 8.1 mph - N/A   Overcast
7:29 AM 26.6 °F 18.2 °F 23.0 °F 86% 29.81 in 6.0 mi NNE 8.1 mph - N/A   Overcast
7:45 AM 26.6 °F 17.5 °F 23.0 °F 86% 29.81 in 6.0 mi NE 9.2 mph - N/A   Overcast
7:53 AM 27.0 °F 18.7 °F 24.1 °F 89% 29.92 in 6.0 mi NE 8.1 mph - N/A   Overcast
8:53 AM 30.9 °F 19.8 °F 25.0 °F 79% 29.94 in 9.0 mi NE 16.1 mph - N/A   Overcast
9:53 AM 32.0 °F 20.5 °F 25.0 °F 75% 29.96 in 10.0 mi NE 18.4 mph - N/A   Overcast
10:53 AM 33.1 °F 22.2 °F 25.0 °F 72% 29.96 in 10.0 mi NE 17.3 mph - N/A   Clear
11:53 AM 33.1 °F 20.6 °F 25.0 °F 72% 29.96 in 10.0 mi NNE 23.0 mph 26.5 mph N/A   Scattered Clouds
12:23 PM 32.0 °F 19.5 °F 24.8 °F 75% 29.87 in 10.0 mi NNE 21.9 mph 29.9 mph N/A   Mostly Cloudy
12:43 PM 33.8 °F 22.5 °F 26.6 °F 75% 29.88 in 10.0 mi NNE 19.6 mph - N/A   Overcast
12:53 PM 33.1 °F 20.9 °F 26.1 °F 75% 29.96 in 10.0 mi NNE 21.9 mph 28.8 mph N/A   Overcast
1:53 PM 33.1 °F 21.9 °F 26.1 °F 75% 29.96 in 10.0 mi NNE 18.4 mph - N/A   Overcast
2:53 PM 34.0 °F 22.4 °F 24.1 °F 67% 29.97 in 10.0 mi NNE 20.7 mph 25.3 mph N/A   Overcast
3:53 PM 33.1 °F 20.9 °F 25.0 °F 72% 29.99 in 10.0 mi North 21.9 mph 27.6 mph N/A   Overcast
4:53 PM 33.1 °F 23.4 °F 25.0 °F 72% 30.04 in 10.0 mi NNE 13.8 mph - N/A   Overcast
5:27 PM 32.0 °F 22.5 °F 26.6 °F 80% 29.97 in 2.5 mi NNE 12.7 mph - 0.00 in Snow Light Snow
5:39 PM 32.0 °F 23.6 °F 28.4 °F 87% 29.97 in 3.0 mi North 10.4 mph - 0.00 in Snow Light Snow
5:48 PM 32.0 °F 22.1 °F 28.4 °F 87% 29.98 in 3.0 mi NNE 13.8 mph - 0.00 in Snow Light Snow
5:53 PM 32.0 °F 22.1 °F 28.0 °F 85% 30.08 in 2.5 mi NNE 13.8 mph - 0.00 in Snow Light Snow
6:07 PM 30.2 °F 18.9 °F 28.4 °F 93% 29.99 in 1.5 mi NNE 16.1 mph - 0.00 in Snow Light Snow
6:24 PM 30.2 °F 21.3 °F 28.4 °F 93% 30.00 in 0.8 mi NNE 10.4 mph - 0.01 in Snow Light Snow
6:32 PM 30.2 °F 21.9 °F 28.4 °F 93% 30.01 in 1.0 mi North 9.2 mph - 0.02 in Snow Light Snow
6:53 PM 30.9 °F 21.7 °F 28.0 °F 89% 30.12 in 1.8 mi North 11.5 mph - 0.02 in Snow Light Snow
7:00 PM 30.2 °F 19.3 °F 28.4 °F 93% 30.02 in 2.5 mi North 15.0 mph - 0.00 in Snow Light Snow
7:07 PM 30.2 °F 19.3 °F 28.4 °F 93% 30.02 in 4.0 mi North 15.0 mph - 0.00 in Snow Light Snow
7:19 PM 30.2 °F 18.9 °F 28.4 °F 93% 30.03 in 5.0 mi North 16.1 mph - 0.00 in Snow Light Snow
7:53 PM 30.9 °F 22.2 °F 28.0 °F 89% 30.13 in 9.0 mi North 10.4 mph - 0.00 in   Overcast
8:25 PM 30.2 °F 22.6 °F 28.4 °F 93% 30.05 in 2.0 mi North 8.1 mph - 0.00 in Snow Light Snow
8:31 PM 30.2 °F 22.6 °F 28.4 °F 93% 30.05 in 2.0 mi North 8.1 mph - 0.00 in Snow Light Snow
8:39 PM 30.2 °F 23.4 °F 28.4 °F 93% 30.05 in 3.0 mi North 6.9 mph - 0.00 in Snow Light Snow
8:49 PM 30.2 °F 24.3 °F 28.4 °F 93% 30.05 in 2.5 mi North 5.8 mph - 0.00 in Snow Light Snow
8:53 PM 30.9 °F 25.2 °F 28.9 °F 92% 30.13 in 2.5 mi North 5.8 mph - 0.01 in Snow Light Snow
9:00 PM 30.2 °F 21.9 °F 28.4 °F 93% 30.05 in 3.0 mi North 9.2 mph - 0.00 in Snow Light Snow
9:17 PM 30.2 °F 23.4 °F 28.4 °F 93% 30.05 in 1.8 mi North 6.9 mph - 0.00 in Snow Light Snow
9:33 PM 30.2 °F 20.2 °F 28.4 °F 93% 30.05 in 3.0 mi North 12.7 mph - 0.01 in Snow Light Snow
9:42 PM 30.2 °F 19.3 °F 28.4 °F 93% 30.05 in 2.5 mi North 15.0 mph 21.9 mph 0.01 in Snow Light Snow
9:53 PM 30.9 °F 22.2 °F 28.9 °F 92% 30.13 in 1.8 mi North 10.4 mph - 0.01 in Snow Light Snow
10:02 PM 30.2 °F 20.8 °F 28.4 °F 93% 30.05 in 2.0 mi North 11.5 mph - 0.00 in Snow Light Snow
10:12 PM 30.2 °F 21.3 °F 28.4 °F 93% 30.05 in 4.0 mi North 10.4 mph - 0.00 in Snow Light Snow
10:41 PM 30.2 °F 21.3 °F 28.4 °F 93% 30.05 in 8.0 mi North 10.4 mph - 0.00 in   Overcast
10:53 PM 30.0 °F 20.5 °F 28.0 °F 92% 30.13 in 10.0 mi North 11.5 mph - 0.00 in   Overcast
11:53 PM 30.0 °F 22.4 °F 28.0 °F 92% 30.12 in 10.0 mi North 8.1 mph - N/A   Overcast